TimeAKST,TemperatureF,Dew PointF,Humidity,Sea Level PressureIn,VisibilityMPH,Wind Direction,Wind SpeedMPH,Gust SpeedMPH,PrecipitationIn,Events,Conditions,WindDirDegrees,DateUTC
12:53 AM,-0.9,-6.0,79,29.51,10.0,NNE,8.1,-,N/A,,Partly Cloudy,30,2013-02-27 09:53:00
1:53 AM,-0.9,-6.0,79,29.50,10.0,NNE,5.8,-,N/A,,Partly Cloudy,30,2013-02-27 10:53:00
3:53 AM,-5.1,-9.9,80,29.48,10.0,Calm,Calm,-,N/A,,Partly Cloudy,0,2013-02-27 12:53:00
4:53 AM,-8.0,-13.0,79,29.47,10.0,NE,4.6,-,N/A,,Partly Cloudy,50,2013-02-27 13:53:00
5:53 AM,-8.0,-11.9,83,29.44,10.0,NNE,3.5,-,N/A,,Partly Cloudy,30,2013-02-27 14:53:00
6:53 AM,-7.1,-13.0,75,29.44,10.0,Calm,Calm,-,N/A,,Partly Cloudy,0,2013-02-27 15:53:00
7:53 AM,-8.0,-14.1,75,29.43,10.0,North,3.5,-,N/A,,Partly Cloudy,10,2013-02-27 16:53:00
8:53 AM,-5.1,-11.0,76,29.42,10.0,NNE,4.6,-,N/A,,Partly Cloudy,20,2013-02-27 17:53:00
9:53 AM,-2.0,-8.0,76,29.42,10.0,NE,6.9,-,N/A,,Partly Cloudy,40,2013-02-27 18:53:00
10:53 AM,5.0,-0.0,80,29.42,10.0,Calm,Calm,-,N/A,,Partly Cloudy,0,2013-02-27 19:53:00
11:53 AM,10.9,5.0,77,29.42,10.0,Calm,Calm,-,N/A,,Partly Cloudy,0,2013-02-27 20:53:00
12:53 PM,17.1,7.0,65,29.40,10.0,NE,6.9,-,N/A,,Partly Cloudy,40,2013-02-27 21:53:00
1:53 PM,21.0,10.0,63,29.40,10.0,NNE,9.2,-,N/A,,Partly Cloudy,30,2013-02-27 22:53:00
2:53 PM,21.0,9.0,60,29.38,10.0,NNE,8.1,-,N/A,,Partly Cloudy,30,2013-02-27 23:53:00
3:53 PM,19.9,8.1,60,29.36,10.0,NNE,8.1,-,N/A,,Partly Cloudy,30,2013-02-28 00:53:00
4:53 PM,21.0,9.0,60,29.36,10.0,NE,4.6,-,N/A,,Partly Cloudy,40,2013-02-28 01:53:00
5:53 PM,16.0,7.0,68,29.36,10.0,NNE,3.5,-,N/A,,Partly Cloudy,20,2013-02-28 02:53:00
6:53 PM,9.0,5.0,84,29.37,10.0,NW,3.5,-,N/A,,Partly Cloudy,320,2013-02-28 03:53:00
7:53 PM,10.0,6.1,84,29.38,10.0,North,3.5,-,N/A,,Partly Cloudy,350,2013-02-28 04:53:00
8:53 PM,3.9,1.0,88,29.38,10.0,Calm,Calm,-,N/A,,Partly Cloudy,0,2013-02-28 05:53:00
9:53 PM,3.0,-0.0,87,29.39,10.0,NNW,3.5,-,N/A,,Partly Cloudy,330,2013-02-28 06:53:00
10:53 PM,6.1,1.0,80,29.41,10.0,Calm,Calm,-,N/A,,Clear,0,2013-02-28 07:53:00
11:53 PM,1.9,-0.9,88,29.42,10.0,NNE,3.5,-,N/A,,Clear,20,2013-02-28 08:53:00